Wetterdaten: Donnerstag, 18.02.2016
Datum Zeit Temp. A. Feuchte A. Luftdruck Regen Wind Richtung Richtung Sonnenschein UV Solar Windben
18.02.2016 00:00 -0,6 C 81 % 1013,5 hPa 0,0 mm 0,0 km/h (0 Bft) - - 0 0 min 0 UV-I 0 W/m 0,0 km/h (0 Bft)
18.02.2016 00:10 -0,7 C 81 % 1013,5 hPa 0,0 mm 0,0 km/h (0 Bft) - - 0 0 min 0 UV-I 0 W/m 0,0 km/h (0 Bft)
18.02.2016 00:20 -0,8 C 81 % 1013,6 hPa 0,0 mm 0,0 km/h (0 Bft) - - 0 0 min 0 UV-I 0 W/m 0,0 km/h (0 Bft)
18.02.2016 00:30 -0,9 C 82 % 1013,7 hPa 0,0 mm 0,0 km/h (0 Bft) - - 0 0 min 0 UV-I 0 W/m 0,0 km/h (0 Bft)
18.02.2016 00:40 -1,1 C 82 % 1013,7 hPa 0,0 mm 0,0 km/h (0 Bft) - - 0 0 min 0 UV-I 0 W/m 0,0 km/h (0 Bft)
18.02.2016 00:50 -1,2 C 82 % 1013,7 hPa 0,0 mm 0,0 km/h (0 Bft) - - 0 0 min 0 UV-I 0 W/m 0,0 km/h (0 Bft)
18.02.2016 01:00 -1,3 C 83 % 1013,7 hPa 0,0 mm 0,0 km/h (0 Bft) - - 0 0 min 0 UV-I 0 W/m 0,0 km/h (0 Bft)
18.02.2016 01:10 -1,3 C 83 % 1013,8 hPa 0,0 mm 0,0 km/h (0 Bft) - - 0 0 min 0 UV-I 0 W/m 0,0 km/h (0 Bft)
18.02.2016 01:20 -1,3 C 84 % 1013,9 hPa 0,0 mm 0,0 km/h (0 Bft) - - 0 0 min 0 UV-I 0 W/m 0,0 km/h (0 Bft)
18.02.2016 01:30 -1,2 C 84 % 1014,0 hPa 0,0 mm 0,0 km/h (0 Bft) - - 0 0 min 0 UV-I 0 W/m 0,0 km/h (0 Bft)
18.02.2016 01:40 -1,1 C 85 % 1013,9 hPa 0,0 mm 0,0 km/h (0 Bft) - - 0 0 min 0 UV-I 0 W/m 0,0 km/h (0 Bft)
18.02.2016 01:50 -0,9 C 85 % 1013,8 hPa 0,0 mm 0,0 km/h (0 Bft) - - 0 0 min 0 UV-I 0 W/m 0,0 km/h (0 Bft)
18.02.2016 02:00 -0,8 C 85 % 1013,9 hPa 0,0 mm 0,0 km/h (0 Bft) - - 0 0 min 0 UV-I 0 W/m 0,0 km/h (0 Bft)
18.02.2016 02:10 -0,7 C 86 % 1013,8 hPa 0,0 mm 0,0 km/h (0 Bft) - - 0 0 min 0 UV-I 0 W/m 0,0 km/h (0 Bft)
18.02.2016 02:20 -0,6 C 86 % 1013,8 hPa 0,0 mm 0,0 km/h (0 Bft) - - 0 0 min 0 UV-I 0 W/m 0,0 km/h (0 Bft)
18.02.2016 02:30 -0,5 C 86 % 1013,8 hPa 0,0 mm 0,0 km/h (0 Bft) - - 0 0 min 0 UV-I 0 W/m 0,0 km/h (0 Bft)
18.02.2016 02:40 -0,4 C 86 % 1013,7 hPa 0,0 mm 0,0 km/h (0 Bft) - - 0 0 min 0 UV-I 0 W/m 0,0 km/h (0 Bft)
18.02.2016 02:50 -0,3 C 86 % 1013,7 hPa 0,0 mm 0,0 km/h (0 Bft) - - 0 0 min 0 UV-I 0 W/m 0,0 km/h (0 Bft)
18.02.2016 03:00 -0,3 C 86 % 1013,6 hPa 0,0 mm 0,0 km/h (0 Bft) - - 0 0 min 0 UV-I 0 W/m 0,0 km/h (0 Bft)
18.02.2016 03:10 -0,2 C 86 % 1013,4 hPa 0,0 mm 0,0 km/h (0 Bft) - - 0 0 min 0 UV-I 0 W/m 0,0 km/h (0 Bft)
18.02.2016 03:20 -0,2 C 86 % 1013,3 hPa 0,0 mm 0,0 km/h (0 Bft) - - 0 0 min 0 UV-I 0 W/m 0,0 km/h (0 Bft)
18.02.2016 03:30 -0,1 C 87 % 1013,3 hPa 0,0 mm 0,0 km/h (0 Bft) - - 0 0 min 0 UV-I 0 W/m 0,0 km/h (0 Bft)
18.02.2016 03:40 -0,1 C 87 % 1013,3 hPa 0,0 mm 0,0 km/h (0 Bft) - - 0 0 min 0 UV-I 0 W/m 0,0 km/h (0 Bft)
18.02.2016 03:50 -0,1 C 87 % 1013,4 hPa 0,0 mm 0,0 km/h (0 Bft) - - 0 0 min 0 UV-I 0 W/m 0,0 km/h (0 Bft)
18.02.2016 04:00 0,0 C 87 % 1013,4 hPa 0,0 mm 0,0 km/h (0 Bft) - - 0 0 min 0 UV-I 0 W/m 0,0 km/h (0 Bft)
18.02.2016 04:10 0,1 C 87 % 1013,4 hPa 0,0 mm 0,0 km/h (0 Bft) - - 0 0 min 0 UV-I 0 W/m 0,0 km/h (0 Bft)
18.02.2016 04:20 0,1 C 87 % 1013,4 hPa 0,0 mm 0,0 km/h (0 Bft) - - 0 0 min 0 UV-I 0 W/m 0,0 km/h (0 Bft)
18.02.2016 04:30 0,2 C 87 % 1013,4 hPa 0,0 mm 0,0 km/h (0 Bft) - - 0 0 min 0 UV-I 0 W/m 0,0 km/h (0 Bft)
18.02.2016 04:40 0,3 C 87 % 1013,3 hPa 0,0 mm 0,0 km/h (0 Bft) O 90 0 min 0 UV-I 0 W/m 1,6 km/h (1 Bft)
18.02.2016 04:50 0,4 C 87 % 1013,3 hPa 0,0 mm 0,0 km/h (0 Bft) O 90 0 min 0 UV-I 0 W/m 1,6 km/h (1 Bft)
18.02.2016 05:00 0,5 C 87 % 1013,5 hPa 0,0 mm 0,0 km/h (0 Bft) O 90 0 min 0 UV-I 0 W/m 1,6 km/h (1 Bft)
18.02.2016 05:10 0,6 C 87 % 1013,5 hPa 0,0 mm 0,0 km/h (0 Bft) O 90 0 min 0 UV-I 0 W/m 1,6 km/h (1 Bft)
18.02.2016 05:20 0,7 C 87 % 1013,6 hPa 0,0 mm 0,0 km/h (0 Bft) - - 0 0 min 0 UV-I 0 W/m 0,0 km/h (0 Bft)
18.02.2016 05:30 0,8 C 87 % 1013,6 hPa 0,0 mm 0,0 km/h (0 Bft) - - 0 0 min 0 UV-I 0 W/m 0,0 km/h (0 Bft)
18.02.2016 05:40 0,9 C 87 % 1013,7 hPa 0,0 mm 0,0 km/h (0 Bft) - - 0 0 min 0 UV-I 0 W/m 0,0 km/h (0 Bft)
18.02.2016 05:50 1,0 C 87 % 1013,6 hPa 0,0 mm 0,0 km/h (0 Bft) - - 0 0 min 0 UV-I 0 W/m 0,0 km/h (0 Bft)
18.02.2016 06:00 1,1 C 87 % 1013,6 hPa 0,0 mm 0,0 km/h (0 Bft) - - 0 0 min 0 UV-I 0 W/m 0,0 km/h (0 Bft)
18.02.2016 06:10 1,1 C 87 % 1013,7 hPa 0,0 mm 0,0 km/h (0 Bft) - - 0 0 min 0 UV-I 0 W/m 0,0 km/h (0 Bft)
18.02.2016 06:20 1,1 C 87 % 1013,7 hPa 0,0 mm 0,0 km/h (0 Bft) - - 0 0 min 0 UV-I 0 W/m 0,0 km/h (0 Bft)
18.02.2016 06:30 1,2 C 87 % 1013,8 hPa 0,0 mm 0,0 km/h (0 Bft) - - 0 0 min 0 UV-I 0 W/m 0,0 km/h (0 Bft)
18.02.2016 06:40 1,2 C 87 % 1014,0 hPa 0,0 mm 0,0 km/h (0 Bft) - - 0 0 min 0 UV-I 0 W/m 0,0 km/h (0 Bft)
18.02.2016 06:50 1,2 C 87 % 1013,9 hPa 0,0 mm 0,0 km/h (0 Bft) - - 0 0 min 0 UV-I 0 W/m 0,0 km/h (0 Bft)
18.02.2016 07:00 1,2 C 87 % 1013,9 hPa 0,0 mm 0,0 km/h (0 Bft) - - 0 0 min 0 UV-I 0 W/m 0,0 km/h (0 Bft)
18.02.2016 07:10 1,1 C 88 % 1014,0 hPa 0,0 mm 0,0 km/h (0 Bft) - - 0 0 min 0 UV-I 0 W/m 0,0 km/h (0 Bft)
18.02.2016 07:20 1,1 C 88 % 1014,0 hPa 0,0 mm 0,0 km/h (0 Bft) - - 0 0 min 0 UV-I 0 W/m 0,0 km/h (0 Bft)
18.02.2016 07:30 1,1 C 88 % 1014,1 hPa 0,0 mm 0,0 km/h (0 Bft) - - 0 0 min 0 UV-I 0 W/m 0,0 km/h (0 Bft)
18.02.2016 07:40 1,1 C 88 % 1014,2 hPa 0,0 mm 0,0 km/h (0 Bft) - - 0 0 min 0 UV-I 0 W/m 0,0 km/h (0 Bft)
18.02.2016 07:50 1,1 C 88 % 1014,4 hPa 0,0 mm 0,0 km/h (0 Bft) - - 0 0 min 0 UV-I 0 W/m 0,0 km/h (0 Bft)
18.02.2016 08:00 1,1 C 88 % 1014,4 hPa 0,0 mm 0,0 km/h (0 Bft) - - 0 0 min 0 UV-I 0 W/m 0,0 km/h (0 Bft)
18.02.2016 08:10 1,1 C 88 % 1014,5 hPa 0,0 mm 0,0 km/h (0 Bft) - - 0 0 min 0 UV-I 0 W/m 0,0 km/h (0 Bft)
18.02.2016 08:20 1,1 C 88 % 1014,5 hPa 0,0 mm 0,0 km/h (0 Bft) - - 0 0 min 0 UV-I 5 W/m 0,0 km/h (0 Bft)
18.02.2016 08:30 1,1 C 88 % 1014,7 hPa 0,0 mm 0,0 km/h (0 Bft) - - 0 0 min 0 UV-I 5 W/m 0,0 km/h (0 Bft)
18.02.2016 08:40 1,2 C 88 % 1014,7 hPa 0,0 mm 0,0 km/h (0 Bft) O 90 0 min 0 UV-I 5 W/m 3,2 km/h (1 Bft)
18.02.2016 08:50 1,2 C 88 % 1014,6 hPa 0,0 mm 0,0 km/h (0 Bft) - - 0 0 min 0 UV-I 7 W/m 0,0 km/h (0 Bft)
18.02.2016 09:00 1,3 C 88 % 1014,7 hPa 0,0 mm 0,0 km/h (0 Bft) - - 0 0 min 0 UV-I 12 W/m 0,0 km/h (0 Bft)
18.02.2016 09:10 1,3 C 88 % 1014,8 hPa 0,0 mm 0,0 km/h (0 Bft) - - 0 0 min 0 UV-I 19 W/m 0,0 km/h (0 Bft)
18.02.2016 09:20 1,3 C 88 % 1014,9 hPa 0,0 mm 0,0 km/h (0 Bft) - - 0 0 min 0 UV-I 19 W/m 0,0 km/h (0 Bft)
18.02.2016 09:30 1,3 C 88 % 1015,0 hPa 0,0 mm 0,0 km/h (0 Bft) - - 0 0 min 0 UV-I 18 W/m 0,0 km/h (0 Bft)
18.02.2016 09:40 1,3 C 88 % 1014,9 hPa 0,0 mm 0,0 km/h (0 Bft) - - 0 0 min 0 UV-I 28 W/m 0,0 km/h (0 Bft)
18.02.2016 09:50 1,3 C 89 % 1015,0 hPa 0,0 mm 0,0 km/h (0 Bft) - - 0 0 min 0 UV-I 32 W/m 0,0 km/h (0 Bft)
18.02.2016 10:00 1,3 C 89 % 1015,0 hPa 0,0 mm 0,0 km/h (0 Bft) - - 0 0 min 0 UV-I 42 W/m 0,0 km/h (0 Bft)
18.02.2016 10:10 1,4 C 89 % 1014,9 hPa 0,0 mm 0,0 km/h (0 Bft) - - 0 0 min 0 UV-I 42 W/m 0,0 km/h (0 Bft)
18.02.2016 10:20 1,6 C 89 % 1015,0 hPa 0,0 mm 0,0 km/h (0 Bft) - - 0 0 min 0 UV-I 39 W/m 0,0 km/h (0 Bft)
18.02.2016 10:30 1,6 C 89 % 1015,0 hPa 0,0 mm 0,0 km/h (0 Bft) - - 0 0 min 0 UV-I 39 W/m 0,0 km/h (0 Bft)
18.02.2016 10:40 1,7 C 89 % 1015,0 hPa 0,0 mm 0,0 km/h (0 Bft) - - 0 0 min 0 UV-I 37 W/m 0,0 km/h (0 Bft)
18.02.2016 10:50 1,7 C 89 % 1015,1 hPa 0,0 mm 0,0 km/h (0 Bft) O 90 0 min 0 UV-I 30 W/m 1,6 km/h (1 Bft)
18.02.2016 11:00 1,8 C 89 % 1015,2 hPa 0,0 mm 0,0 km/h (0 Bft) O 90 0 min 0 UV-I 28 W/m 3,2 km/h (1 Bft)
18.02.2016 11:10 1,8 C 89 % 1015,2 hPa 0,0 mm 0,0 km/h (0 Bft) O 90 0 min 0 UV-I 44 W/m 3,2 km/h (1 Bft)
18.02.2016 11:20 1,8 C 89 % 1015,3 hPa 0,0 mm 0,0 km/h (0 Bft) O 90 0 min 0 UV-I 51 W/m 1,6 km/h (1 Bft)
18.02.2016 11:30 1,8 C 89 % 1015,3 hPa 0,0 mm 0,0 km/h (0 Bft) O 90 0 min 0 UV-I 60 W/m 3,2 km/h (1 Bft)
18.02.2016 11:40 1,8 C 88 % 1015,3 hPa 0,0 mm 0,0 km/h (0 Bft) O 90 0 min 0 UV-I 54 W/m 3,2 km/h (1 Bft)
18.02.2016 11:50 1,8 C 88 % 1015,3 hPa 0,0 mm 0,0 km/h (0 Bft) O 90 0 min 0 UV-I 42 W/m 1,6 km/h (1 Bft)
18.02.2016 12:00 1,9 C 88 % 1015,3 hPa 0,0 mm 0,0 km/h (0 Bft) - - 0 0 min 0 UV-I 37 W/m 0,0 km/h (0 Bft)
18.02.2016 12:10 1,9 C 88 % 1015,3 hPa 0,0 mm 0,0 km/h (0 Bft) O 90 0 min 0 UV-I 39 W/m 3,2 km/h (1 Bft)
18.02.2016 12:20 1,9 C 88 % 1015,4 hPa 0,0 mm 0,0 km/h (0 Bft) O 90 0 min 0 UV-I 54 W/m 1,6 km/h (1 Bft)
18.02.2016 12:30 1,9 C 88 % 1015,4 hPa 0,0 mm 0,0 km/h (0 Bft) - - 0 0 min 0 UV-I 63 W/m 0,0 km/h (0 Bft)
18.02.2016 12:40 1,9 C 88 % 1015,3 hPa 0,0 mm 0,0 km/h (0 Bft) - - 0 0 min 0 UV-I 67 W/m 0,0 km/h (0 Bft)
18.02.2016 12:50 1,9 C 88 % 1015,1 hPa 0,0 mm 0,0 km/h (0 Bft) - - 0 0 min 0 UV-I 76 W/m 0,0 km/h (0 Bft)
18.02.2016 13:00 1,9 C 88 % 1015,0 hPa 0,0 mm 0,0 km/h (0 Bft) - - 0 0 min 1 UV-I 88 W/m 0,0 km/h (0 Bft)
18.02.2016 13:10 2,0 C 88 % 1014,9 hPa 0,0 mm 0,0 km/h (0 Bft) - - 0 0 min 1 UV-I 104 W/m 0,0 km/h (0 Bft)
18.02.2016 13:20 2,1 C 88 % 1015,0 hPa 0,0 mm 0,0 km/h (0 Bft) - - 0 0 min 1 UV-I 102 W/m 0,0 km/h (0 Bft)
18.02.2016 13:30 2,2 C 88 % 1014,9 hPa 0,0 mm 0,0 km/h (0 Bft) - - 0 0 min 1 UV-I 114 W/m 0,0 km/h (0 Bft)
18.02.2016 13:40 2,3 C 88 % 1014,9 hPa 0,0 mm 0,0 km/h (0 Bft) - - 0 0 min 1 UV-I 109 W/m 0,0 km/h (0 Bft)
18.02.2016 13:50 2,5 C 88 % 1014,9 hPa 0,0 mm 0,0 km/h (0 Bft) - - 0 0 min 1 UV-I 107 W/m 0,0 km/h (0 Bft)
18.02.2016 14:00 2,7 C 88 % 1014,9 hPa 0,0 mm 0,0 km/h (0 Bft) - - 0 0 min 1 UV-I 109 W/m 0,0 km/h (0 Bft)
18.02.2016 14:10 2,8 C 88 % 1014,9 hPa 0,0 mm 0,0 km/h (0 Bft) O 90 0 min 1 UV-I 128 W/m 1,6 km/h (1 Bft)
18.02.2016 14:20 2,9 C 88 % 1014,9 hPa 0,0 mm 0,0 km/h (0 Bft) O 90 0 min 1 UV-I 116 W/m 1,6 km/h (1 Bft)
18.02.2016 14:30 3,1 C 87 % 1014,8 hPa 0,0 mm 0,0 km/h (0 Bft) - - 0 0 min 1 UV-I 120 W/m 0,0 km/h (0 Bft)
18.02.2016 14:40 3,2 C 87 % 1014,8 hPa 0,0 mm 0,0 km/h (0 Bft) - - 0 0 min 1 UV-I 151 W/m 0,0 km/h (0 Bft)
18.02.2016 14:50 3,3 C 87 % 1014,7 hPa 0,0 mm 0,0 km/h (0 Bft) - - 0 10 min 1 UV-I 211 W/m 0,0 km/h (0 Bft)
18.02.2016 15:00 3,6 C 86 % 1014,7 hPa 0,0 mm 0,0 km/h (0 Bft) O 90 0 min 1 UV-I 181 W/m 1,6 km/h (1 Bft)
18.02.2016 15:10 3,8 C 86 % 1014,8 hPa 0,0 mm 0,0 km/h (0 Bft) O 90 0 min 1 UV-I 120 W/m 1,6 km/h (1 Bft)
18.02.2016 15:20 3,8 C 85 % 1014,8 hPa 0,0 mm 0,0 km/h (0 Bft) - - 0 0 min 1 UV-I 120 W/m 0,0 km/h (0 Bft)
18.02.2016 15:30 3,7 C 84 % 1014,8 hPa 0,0 mm 0,0 km/h (0 Bft) O-SO 112 0 min 1 UV-I 120 W/m 4,8 km/h (1 Bft)
18.02.2016 15:40 3,7 C 83 % 1014,7 hPa 0,0 mm 0,0 km/h (0 Bft) O-SO 112 0 min 0 UV-I 86 W/m 3,2 km/h (1 Bft)
18.02.2016 15:50 3,7 C 82 % 1014,7 hPa 0,0 mm 0,0 km/h (0 Bft) O-SO 112 0 min 0 UV-I 62 W/m 1,6 km/h (1 Bft)
18.02.2016 16:00 3,7 C 81 % 1014,8 hPa 0,0 mm 0,0 km/h (0 Bft) - - 0 0 min 0 UV-I 63 W/m 0,0 km/h (0 Bft)
18.02.2016 16:10 3,7 C 80 % 1014,9 hPa 0,0 mm 0,0 km/h (0 Bft) - - 0 0 min 0 UV-I 90 W/m 0,0 km/h (0 Bft)
18.02.2016 16:20 3,6 C 78 % 1015,0 hPa 0,0 mm 0,0 km/h (0 Bft) SO 135 0 min 0 UV-I 91 W/m 3,2 km/h (1 Bft)
18.02.2016 16:30 3,5 C 76 % 1015,0 hPa 0,0 mm 0,0 km/h (0 Bft) SO 135 0 min 0 UV-I 72 W/m 1,6 km/h (1 Bft)
18.02.2016 16:40 3,5 C 74 % 1015,0 hPa 0,0 mm 0,0 km/h (0 Bft) - - 0 10 min 0 UV-I 93 W/m 0,0 km/h (0 Bft)
18.02.2016 16:50 3,5 C 72 % 1015,0 hPa 0,0 mm 0,0 km/h (0 Bft) - - 0 10 min 0 UV-I 104 W/m 0,0 km/h (0 Bft)
18.02.2016 17:00 3,6 C 71 % 1015,1 hPa 0,0 mm 0,0 km/h (0 Bft) - - 0 10 min 0 UV-I 69 W/m 0,0 km/h (0 Bft)
18.02.2016 17:10 3,6 C 70 % 1015,1 hPa 0,0 mm 0,0 km/h (0 Bft) - - 0 10 min 0 UV-I 46 W/m 0,0 km/h (0 Bft)
18.02.2016 17:20 3,6 C 69 % 1015,0 hPa 0,0 mm 0,0 km/h (0 Bft) - - 0 10 min 0 UV-I 39 W/m 0,0 km/h (0 Bft)
18.02.2016 17:30 3,6 C 69 % 1015,0 hPa 0,0 mm 0,0 km/h (0 Bft) - - 0 10 min 0 UV-I 21 W/m 0,0 km/h (0 Bft)
18.02.2016 17:40 3,6 C 68 % 1014,9 hPa 0,0 mm 0,0 km/h (0 Bft) - - 0 0 min 0 UV-I 12 W/m 0,0 km/h (0 Bft)
18.02.2016 17:50 3,4 C 68 % 1015,1 hPa 0,0 mm 0,0 km/h (0 Bft) - - 0 0 min 0 UV-I 5 W/m 0,0 km/h (0 Bft)
18.02.2016 18:00 3,2 C 68 % 1015,2 hPa 0,0 mm 0,0 km/h (0 Bft) - - 0 0 min 0 UV-I 0 W/m 0,0 km/h (0 Bft)
18.02.2016 18:10 2,9 C 67 % 1015,3 hPa 0,0 mm 0,0 km/h (0 Bft) - - 0 0 min 0 UV-I 0 W/m 0,0 km/h (0 Bft)
18.02.2016 18:20 2,7 C 68 % 1015,4 hPa 0,0 mm 0,0 km/h (0 Bft) - - 0 0 min 0 UV-I 0 W/m 0,0 km/h (0 Bft)
18.02.2016 18:30 2,4 C 68 % 1015,5 hPa 0,0 mm 0,0 km/h (0 Bft) - - 0 0 min 0 UV-I 0 W/m 0,0 km/h (0 Bft)
18.02.2016 18:40 2,2 C 69 % 1015,6 hPa 0,0 mm 0,0 km/h (0 Bft) - - 0 0 min 0 UV-I 0 W/m 0,0 km/h (0 Bft)
18.02.2016 18:50 1,9 C 70 % 1015,6 hPa 0,0 mm 0,0 km/h (0 Bft) - - 0 0 min 0 UV-I 0 W/m 0,0 km/h (0 Bft)
18.02.2016 19:00 1,6 C 71 % 1015,8 hPa 0,0 mm 0,0 km/h (0 Bft) - - 0 0 min 0 UV-I 0 W/m 0,0 km/h (0 Bft)
18.02.2016 19:10 1,3 C 72 % 1015,9 hPa 0,0 mm 0,0 km/h (0 Bft) - - 0 0 min 0 UV-I 0 W/m 0,0 km/h (0 Bft)
18.02.2016 19:20 1,0 C 72 % 1015,8 hPa 0,0 mm 0,0 km/h (0 Bft) - - 0 0 min 0 UV-I 0 W/m 0,0 km/h (0 Bft)
18.02.2016 19:30 0,7 C 73 % 1015,9 hPa 0,0 mm 0,0 km/h (0 Bft) - - 0 0 min 0 UV-I 0 W/m 0,0 km/h (0 Bft)
18.02.2016 19:40 0,5 C 73 % 1015,8 hPa 0,0 mm 0,0 km/h (0 Bft) - - 0 0 min 0 UV-I 0 W/m 0,0 km/h (0 Bft)
18.02.2016 19:50 0,3 C 73 % 1015,7 hPa 0,0 mm 0,0 km/h (0 Bft) - - 0 0 min 0 UV-I 0 W/m 0,0 km/h (0 Bft)
18.02.2016 20:00 0,1 C 74 % 1015,7 hPa 0,0 mm 0,0 km/h (0 Bft) - - 0 0 min 0 UV-I 0 W/m 0,0 km/h (0 Bft)
18.02.2016 20:10 -0,1 C 75 % 1015,8 hPa 0,0 mm 0,0 km/h (0 Bft) - - 0 0 min 0 UV-I 0 W/m 0,0 km/h (0 Bft)
18.02.2016 20:20 -0,2 C 75 % 1015,8 hPa 0,0 mm 0,0 km/h (0 Bft) - - 0 0 min 0 UV-I 0 W/m 0,0 km/h (0 Bft)
18.02.2016 20:30 -0,4 C 76 % 1015,9 hPa 0,0 mm 0,0 km/h (0 Bft) - - 0 0 min 0 UV-I 0 W/m 0,0 km/h (0 Bft)
18.02.2016 20:40 -0,5 C 77 % 1015,9 hPa 0,0 mm 0,0 km/h (0 Bft) - - 0 0 min 0 UV-I 0 W/m 0,0 km/h (0 Bft)
18.02.2016 20:50 -0,6 C 78 % 1016,0 hPa 0,0 mm 0,0 km/h (0 Bft) - - 0 0 min 0 UV-I 0 W/m 0,0 km/h (0 Bft)
18.02.2016 21:00 -0,6 C 79 % 1016,1 hPa 0,0 mm 0,0 km/h (0 Bft) - - 0 0 min 0 UV-I 0 W/m 0,0 km/h (0 Bft)
18.02.2016 21:10 -0,6 C 80 % 1016,1 hPa 0,0 mm 0,0 km/h (0 Bft) - - 0 0 min 0 UV-I 0 W/m 0,0 km/h (0 Bft)
18.02.2016 21:20 -0,7 C 80 % 1016,1 hPa 0,0 mm 0,0 km/h (0 Bft) - - 0 0 min 0 UV-I 0 W/m 0,0 km/h (0 Bft)
18.02.2016 21:30 -0,7 C 81 % 1016,1 hPa 0,0 mm 0,0 km/h (0 Bft) - - 0 0 min 0 UV-I 0 W/m 0,0 km/h (0 Bft)
18.02.2016 21:40 -0,7 C 81 % 1016,1 hPa 0,0 mm 0,0 km/h (0 Bft) - - 0 0 min 0 UV-I 0 W/m 0,0 km/h (0 Bft)
18.02.2016 21:50 -0,7 C 82 % 1016,1 hPa 0,0 mm 0,0 km/h (0 Bft) - - 0 0 min 0 UV-I 0 W/m 0,0 km/h (0 Bft)
18.02.2016 22:00 -0,8 C 82 % 1016,2 hPa 0,0 mm 0,0 km/h (0 Bft) - - 0 0 min 0 UV-I 0 W/m 0,0 km/h (0 Bft)
18.02.2016 22:10 -0,8 C 82 % 1016,1 hPa 0,0 mm 0,0 km/h (0 Bft) - - 0 0 min 0 UV-I 0 W/m 0,0 km/h (0 Bft)
18.02.2016 22:20 -0,8 C 82 % 1016,1 hPa 0,0 mm 0,0 km/h (0 Bft) - - 0 0 min 0 UV-I 0 W/m 0,0 km/h (0 Bft)
18.02.2016 22:30 -0,9 C 83 % 1016,2 hPa 0,0 mm 0,0 km/h (0 Bft) - - 0 0 min 0 UV-I 0 W/m 0,0 km/h (0 Bft)
18.02.2016 22:40 -0,9 C 83 % 1016,3 hPa 0,0 mm 0,0 km/h (0 Bft) - - 0 0 min 0 UV-I 0 W/m 0,0 km/h (0 Bft)
18.02.2016 22:50 -1,0 C 83 % 1016,4 hPa 0,0 mm 0,0 km/h (0 Bft) - - 0 0 min 0 UV-I 0 W/m 0,0 km/h (0 Bft)
18.02.2016 23:00 -1,1 C 83 % 1016,4 hPa 0,0 mm 0,0 km/h (0 Bft) - - 0 0 min 0 UV-I 0 W/m 0,0 km/h (0 Bft)
18.02.2016 23:10 -1,1 C 83 % 1016,4 hPa 0,0 mm 0,0 km/h (0 Bft) - - 0 0 min 0 UV-I 0 W/m 0,0 km/h (0 Bft)
18.02.2016 23:20 -1,2 C 83 % 1016,5 hPa 0,0 mm 0,0 km/h (0 Bft) - - 0 0 min 0 UV-I 0 W/m 0,0 km/h (0 Bft)
18.02.2016 23:30 -1,2 C 84 % 1016,5 hPa 0,0 mm 0,0 km/h (0 Bft) - - 0 0 min 0 UV-I 0 W/m 0,0 km/h (0 Bft)
18.02.2016 23:40 -1,2 C 84 % 1016,5 hPa 0,0 mm 0,0 km/h (0 Bft) - - 0 0 min 0 UV-I 0 W/m 0,0 km/h (0 Bft)
18.02.2016 23:50 -1,3 C 84 % 1016,5 hPa 0,0 mm 0,0 km/h (0 Bft) - - 0 0 min 0 UV-I 0 W/m 0,0 km/h (0 Bft)
_ Min-Zeit 01:00 18:10 03:20 - 00:00 - - - - - 00:00
Minimum _ -1,3 C 67 % 1013,3 hPa - 0,0 km/h (0 Bft) - - - - - 0,0 km/h (0 Bft)
_ Max-Zeit 15:10 09:50 23:20 00:00 00:00 - - 14:50 13:30 14:50 15:30
Maximum _ 3,8 C 89 % 1016,5 hPa 0,0 mm 0,0 km/h
- - (0 Bft)
- - 10 min 1 UV-I 211 W/m 4,8 km/h
O-SO (1 Bft)
Durchschnitt _ 1,0 C 83 % 1014,8 hPa #0,0 mm 0,0 km/h (0 Bft) - - - #1:10 h 1 UV-I 66 W/m 0,4 km/h (0 Bft)